Regional Weather Roundup
Issued by NWS

Home | Current Version | Previous Version | Text Only | Print | Product List | Glossary Off
Versions: 1 2 3 4 5 6 7 8 9 10 11 12 13 14 15 16 17 18 19 20 21 22 23 24 25 26 27 28 29 30 31 32 33 34 35 36 37 38 39 40 41 42 43 44 45 46 47 48 49 50

000
ASUS43 KLOT 251603
RWRIL

ILLINOIS REGIONAL WEATHER ROUNDUP
NATIONAL WEATHER SERVICE CHICAGO/ROMEOVILLE IL
1100 AM CDT WED MAY 25 2016

NOTE: "FAIR" INDICATES FEW OR NO CLOUDS BELOW 12,000 FEET WITH NO
SIGNIFICANT WEATHER AND/OR OBSTRUCTIONS TO VISIBILITY.

* THESE STATIONS ARE NOT UNDER NWS QUALITY CONTROL. THEY ALSO MAY NOT
  REPORT WEATHER SUCH AS PRECIPITATION OR FOG.

ILZ001-002-007-009-015-016-024-251700-
NORTHWEST ILLINOIS

CITY           SKY/WX    TMP DP  RH WIND       PRES   REMARKS
MOLINE         MOSUNNY   79  63  57 SE15      29.91F HX  80
STERLING*      CLOUDY    80  60  50 VRB7      29.96F HX  81
$$

ILZ003-004-008-010-011-017-018-251700-
NORTH CENTRAL ILLINOIS

CITY           SKY/WX    TMP DP  RH WIND       PRES   REMARKS
ROCKFORD       CLOUDY    81  65  58 S14       29.98F HX  83
FREEPORT*      MOSUNNY   80  65  61 SE16      29.98F HX  81
ROCHELLE*      MOSUNNY   82  64  54 SE13G20   29.98F HX  83
DE KALB*       PTSUNNY   78  66  66 S13       30.00F HX  80
$$

ILZ005-006-012>014-019>023-251700-
NORTHEAST ILLINOIS

CITY           SKY/WX    TMP DP  RH WIND       PRES   REMARKS
CHICAGO-OHARE  CLOUDY    78  65  63 S8        29.98F HX  80
CHICAGO-MIDWAY PTSUNNY   80  61  52 S12       29.99F HX  81
AURORA         MOSUNNY   79  65  62 S13       30.00S HX  81
LANSING*       MOSUNNY   79  63  57 SE7       30.00F HX  80
WAUKEGAN       CLOUDY    79  65  62 E12       29.98F HX  81
DUPAGE AIRPORT SUNNY     78  64  61 S10       29.99F HX  80
WHEELING       CLOUDY    79  65  62 S10       30.00F HX  81
MORRIS*        SUNNY     80  62  53 S9        29.98F HX  81
NORTHERLY ISL    N/A     75  59  57 SE2         N/A
NORTHERLY ISL    N/A     75  59  57 SE2         N/A
$$

LMZ740>746-251700-
SOUTHERN LAKE MICHIGAN

STATION/POSITION SKY/WX   TEMP    WIND        PRES    VSBY  WAVE
                          AIR SEA DIR/SP/G                  HT/PER
                          (F)     (DEG/KT/KT) (MB)    (MI)  (FT/S)
SOUTHERN BUOY              54 49  150/  6/  6 1016.2          1
WILMETTE HARBOR            61 57  160/ 10/ 12   N/A           1
HARRISON CRIB              72     170/ 15/ 16   N/A
BURNHAM HARBOR             74     130/  4/ 12   N/A
CALUMET HARBOR             75     180/ 11/ 16 1015.6
BURNS HARBOR               75     180/ 12/ 17 1016.9F
MICHIGAN CITY              75     180/ 14/ 16   N/A
MICHIGAN CITY 6N           67 59  230/  4/  6   N/A           0
ST. JOSEPH                 67 59  260/  2/  4   N/A           0
$$

ILZ025>027-034>036-040-047-049-050-058-095>099-251700-
WEST-CENTRAL ILLINOIS

CITY           SKY/WX    TMP DP  RH WIND       PRES   REMARKS
QUINCY         CLOUDY    73  63  70 S8        29.94S
MACOMB*        SUNNY     78  64  63 S14       29.95F
PITTSFIELD*    CLOUDY    74  66  76 S9        29.98R
$$

ILZ028>032-037-038-041>044-048-051>054-059>061-251700-
CENTRAL ILLINOIS

CITY           SKY/WX    TMP DP  RH WIND       PRES   REMARKS
BLOOMINGTON    SUNNY     80  66  62 S12       30.00F HX  82
DECATUR        MOSUNNY   79  63  57 S17       30.01S HX  80
PEORIA         SUNNY     79  65  62 S12       29.96F HX  81
LINCOLN*       MOSUNNY   78  64  62 S9        29.98F
SPRINGFIELD    MOSUNNY   77  64  64 S8        29.97F
TAYLORVILLE    NOT AVBL
$$

ILZ033-039-045-046-055>057-062-063-251700-
EAST-CENTRAL ILLINOIS

CITY           SKY/WX    TMP DP  RH WIND       PRES   REMARKS
CHAMPAIGN      SUNNY     81  58  45 S10       30.01F HX  81
MATTOON        PTSUNNY   76  63  64 S14       30.04R
$$

ILZ079-100>102-251700-
SOUTHWEST ILLINOIS

CITY           SKY/WX    TMP DP  RH WIND       PRES   REMARKS
BELLEVILLE     CLOUDY    73  68  83 E10       30.01F
CAHOKIA*       CLOUDY    74  64  71 SE9       30.00F
SPARTA*        CLOUDY    72  66  79 S10G18    30.04F
$$

ILZ064>066-069>071-074>076-080>082-084>086-088>090-092>094-251700-
SOUTH-CENTRAL ILLINOIS

CITY           SKY/WX    TMP DP  RH WIND       PRES   REMARKS
CARBONDALE     CLOUDY    70  65  84 E9        30.07S
CAIRO*         PTSUNNY   71  68  89 E5        30.08R
EFFINGHAM*     CLOUDY    75  66  73 S10       30.07R
MARION         CLOUDY    70  68  94 SE8       30.09F
MT. VERNON     CLOUDY    66  63  88 SE6       30.10R
SALEM*         CLOUDY    69  65  88 S9G18     30.08R
$$

ILZ067-068-072-073-078-083-087-091-251700-
SOUTHEAST ILLINOIS

CITY           SKY/WX    TMP DP  RH WIND       PRES   REMARKS
LAWRENCEVILLE  PTSUNNY   80  64  58 S14       30.08R HX  82
FLORA*         CLOUDY    72  66  80 S14       30.08R
HARRISBURG*    CLOUDY    68  66  92 S6        30.12R THUNDER
ROBINSON*      CLOUDY    76  65  69 S9        30.08R
CARMI*         RAIN      68  66  92 SW12      30.10R
$$

ABBREVIATIONS USED IN REMARKS
   TC - TEMPERATURE IN CELSIUS
  WCI - WIND CHILL INDEX
   HX - HEAT INDEX
  VSB - VISIBILITY
$$





USA.gov is the U.S. government's official web portal to all federal, state and local government web resources and services.